[Date Prev][Date Next][Thread Prev][Thread Next] - [Date Index][Thread Index][Author Index]
2 Line ISS Keps 2-14
- Subject: [sarex] 2 Line ISS Keps 2-14
- From: "Dave Larsen PhD" <doc@xxxxxxxxxxx>
- Date: Sun, 13 Feb 2005 18:09:12 -0800
ISS
1 25544U 98067A 05044.92948037 .00022279 00000-0 17854-3 0 8118
2 25544 51.6461 171.2248 0009710 95.0876 6.2511 15.70903938356309
----
Via the sarex mailing list at AMSAT.ORG courtesy of AMSAT-NA.
To unsubscribe, send "unsubscribe sarex" to Majordomo@amsat.org
AMSAT Home